This is the latest recevied weather packets stored in our database for station/object WK7G. If no packets are shown the sender has not sent any weather packets the latest 10 day(s).
| Time | Temp. | Humidity | Pressure | Rain* | Wind** | Luminosity | Snow |
|---|---|---|---|---|---|---|---|
| 1777477531 | 8.33° C | 49% | 1013.4 hPa | 0 mm | - | 523 W/m² | - |
| 1777477228 | 7.78° C | 50% | 1013.7 hPa | 0 mm | - | 511 W/m² | - |
| 1777476924 | 7.78° C | 51% | 1013.5 hPa | 0 mm | - | 471 W/m² | - |
| 1777476623 | 7.78° C | 55% | 1013.9 hPa | 0 mm | - | 456 W/m² | - |
| 1777476319 | 6.67° C | 55% | 1013.6 hPa | 0 mm | - | 464 W/m² | - |
| 1777476015 | 6.11° C | 58% | 1013.7 hPa | 0 mm | - | 336 W/m² | - |
| 1777475711 | 6.67° C | 60% | 1013.7 hPa | 0 mm | - | 288 W/m² | - |
| 1777475407 | 6.11° C | 58% | 1013.6 hPa | 0 mm | - | 282 W/m² | - |
| 1777475102 | 6.11° C | 59% | 1013.7 hPa | 0 mm | - | 298 W/m² | - |
| 1777474799 | 5.56° C | 60% | 1013.7 hPa | 0 mm | - | 255 W/m² | - |
| 1777474495 | 5° C | 62% | 1013.7 hPa | 0 mm | - | 344 W/m² | - |
| 1777474192 | 5° C | 61% | 1013.9 hPa | 0 mm | - | 384 W/m² | - |
| 1777473890 | 4.44° C | 62% | 1014 hPa | 0 mm | - | 324 W/m² | - |
| 1777473587 | 3.89° C | 65% | 1013.6 hPa | 0 mm | - | 259 W/m² | - |
| 1777473282 | 3.33° C | 68% | 1013.6 hPa | 0 mm | - | 280 W/m² | - |
| 1777472978 | 2.78° C | 72% | 1013.9 hPa | 0 mm | - | 232 W/m² | - |
| 1777472675 | 1.67° C | 72% | 1013.9 hPa | 0 mm | - | 239 W/m² | - |
| 1777472371 | 1.11° C | 73% | 1014 hPa | 0 mm | - | 223 W/m² | - |
| 1777472070 | 0.56° C | 75% | 1014 hPa | 0 mm | - | 140 W/m² | - |
| 1777471765 | 0° C | 78% | 1013.7 hPa | 0 mm | - | 122 W/m² | - |
| 1777471462 | 0° C | 78% | 1013.9 hPa | 0 mm | - | 106 W/m² | - |
| 1777471158 | -0.56° C | 78% | 1014 hPa | 0 mm | - | 97 W/m² | - |
| 1777470855 | -0.56° C | 78% | 1013.9 hPa | 0 mm | - | 91 W/m² | - |
| 1777470552 | -0.56° C | 78% | 1013.7 hPa | 0 mm | - | 83 W/m² | - |
| 1777470248 | -0.56° C | 78% | 1014 hPa | 0 mm | - | 78 W/m² | - |
* Rain latest hour (hover to see other rain measurements)
** Current wind speed in m/s (hover to see current wind gust speed)